Tracking 19831 objects as of 23-Aug-2019
HD Live streaming from Space Station
objects crossing your sky now

COSMOS 457

Track COSMOS 457 now!
10-day predictions
COSMOS 457 is classified as:


NORAD ID: 5614
Int'l Code: 1971-099A
Perigee: 1,189.4 km
Apogee: 1,224.6 km
Inclination: 74.0 °
Period: 109.4 minutes
Semi major axis: 7578 km
RCS: 3.3674 m2 (large)
Launch date: November 20, 1971
Source: Commonwealth of Independent States (former USSR) (CIS)
Launch site: PLESETSK MISSILE AND SPACE COMPLEX (PKMTR)
aabbcc
Your satellite tracking list
Your tracking list is empty




NASA's NSSDC Master Catalog

Two Line Element Set (TLE):
1  5614U 71099A   19234.19800883 -.00000070 +00000-0 -13355-3 0  9997
2  5614 074.0348 141.6378 0023194 180.1119 333.7130 13.16045197294118
Source of the keplerian elements: AFSPC